This demonstration page uses our WeatherBlox Daily Observations layout. Learn more.

Left ArrowRight Arrow

Hourly Observations for April 2, 2022

Temp ( °F °C ) Dew Point ( °F °C ) Humidity (%) Winds ( mph kmh ) Pressure ( in mb ) Visibility ( mi km ) Precip ( " mm )
12:52 am 00:52 Cloudy 50 10 31 -0.6 48 48 SSE 13 20 30.00 1016 10 16 0.00 0.00
1:52 am 01:52 Mostly Cloudy 49 9.4 32 0 52 52 S 10 17 30.01 1016 10 16 0.00 0.00
2:52 am 02:52 Partly Cloudy 48 8.9 33 0.6 56 56 S 13 20 30.02 1017 10 16 0.00 0.00
3:52 am 03:52 Cloudy with Light Rain 48 8.9 37 2.8 66 66 SSW 12 19 30.01 1016 10 16 0.00 0.00
4:52 am 04:52 Cloudy 47 8.3 41 5 80 80 S 10 17 30.01 1016 10 16 0.00 0.00
5:52 am 05:52 Cloudy with Light Rain 46 7.8 42 5.6 86 86 S 10 17 30.03 1017 10 16 0.00 0.00
6:52 am 06:52 Cloudy 46 7.8 43 6.1 89 89 SSW 8 13 30.03 1017 10 16 0.01 0.25
7:52 am 07:52 Cloudy 47 8.3 43 6.1 86 86 S 9 15 30.04 1017 10 16 0.00 0.00
8:52 am 08:52 Cloudy 47 8.3 44 6.7 90 90 SSW 10 17 30.05 1018 10 16 0.00 0.00
9:25 am 09:25 Cloudy 49 9.4 44 6.7 83 83 WSW 7 11 30.07 1018 10 16 0.00 0.00
9:52 am 09:52 Cloudy 52 11.1 46 7.8 80 80 W 12 19 30.06 1018 10 16 0.00 0.00
10:52 am 10:52 Cloudy 54 12.2 46 7.8 75 75 W 16 26 30.06 1018 10 16 0.00 0.00
11:52 am 11:52 Mostly Cloudy 58 14.4 46 7.8 65 65 W 15 24 30.05 1018 10 16 0.00 0.00
11:59 am 11:59 Partly Cloudy 58 14.4 47 8.3 67 67 W 18 30 30.04 1017 10 16 0.00 0.00
12:52 pm 12:52 Mostly Sunny 61 16.1 42 5.6 50 50 NW 15 24 30.04 1017 10 16 0.00 0.00
1:52 pm 13:52 Sunny 62 16.7 39 3.9 43 43 NNW 17 28 30.04 1017 10 16 0.00 0.00
2:52 pm 14:52 Sunny 62 16.7 38 3.3 41 41 NNW 16 26 30.03 1017 10 16 0.00 0.00
3:52 pm 15:52 Sunny 62 16.7 38 3.3 41 41 NNW 20 31 30.02 1017 10 16 0.00 0.00
4:52 pm 16:52 Sunny 62 16.7 37 2.8 40 40 NW 14 22 30.01 1016 10 16 0.00 0.00
5:52 pm 17:52 Sunny 61 16.1 34 1.1 36 36 NNW 15 24 30.02 1017 10 16 0.00 0.00
6:52 pm 18:52 Sunny 57 13.9 35 1.7 44 44 NW 8 13 30.02 1017 10 16 0.00 0.00
7:52 pm 19:52 Clear 54 12.2 32 0 43 43 N 3 6 30.03 1017 10 16 0.00 0.00
8:52 pm 20:52 Clear 46 7.8 35 1.7 66 66 Calm 30.05 1018 10 16 0.00 0.00
9:52 pm 21:52 Clear 45 7.2 33 0.6 63 63 Calm 30.07 1018 10 16 0.00 0.00
10:52 pm 22:52 Clear 50 10 31 -0.6 48 48 NE 5 7 30.08 1019 10 16 0.00 0.00
11:52 pm 23:52 Clear 41 5 33 0.6 73 73 Calm 30.09 1019 10 16 0.00 0.00

Powered by AerisWeather